AirNav   Jet Aviation Boston
 
 353 users online  

4VA3 Flying W Airport
Richmond, Virginia, USA

GOING TO RICHMOND?


FAA INFORMATION EFFECTIVE 21 JUNE 2018

Location

FAA Identifier: 4VA3
Lat/Long: 37-25-47.5320N / 077-23-39.9340W
37-25.792200N / 077-23.665567W
37.4298700 / -77.3944261
(estimated)
Elevation: 101 ft. / 30.8 m (surveyed)
Variation: 09W (1985)
From city: 8 miles SE of RICHMOND, VA
Time zone: UTC -4 (UTC -5 during Standard Time)
Zip code: 23231

Airport Operations

Airport use: Private use. Permission required prior to landing
Activation date: 03/1978
Control tower: no
ARTCC: WASHINGTON CENTER
FSS: LEESBURG FLIGHT SERVICE STATION
Attendance: CONTINUOUS
Wind indicator: yes
Segmented circle: no

Airport Communications

WX ASOS at RIC (6 nm NE): PHONE 804-236-1091
WX AWOS-3PT at FCI (6 nm W): 128.625 (804-271-8426)
WX AWOS-3 at W96 (13 nm E): 119.875 (804-932-8863)
WX AWOS-3 at PTB (16 nm S): 133.325 (804-861-5551)
WX ASOS at OFP (17 nm N): 119.025 (804-752-2902)

Nearby radio navigation aids

VOR radial/distance  VOR name  Freq  Var
RICr228/5.6RICHMOND VORTAC114.1009W
HPWr301/14.6HOPEWELL VORTAC112.0006W
FAKr112/21.5FLAT ROCK VORTAC113.3006W
HCMr275/32.6HARCUM VORTAC108.8007W

 
NDB name  Hdg/Dist  Freq  Var  ID
PETERSBURG034/19.928408WPTB .--. - -...
WAKEFIELD336/32.827411WAKQ .- -.- --.-
BLACKSTONE069/36.032609WBKT -... -.- -

Airport Services

Runway Information

Runway 5/23

Dimensions: 2250 x 50 ft. / 686 x 15 m
Surface: turf
Runway edge markings: 05/23 RWY MARKED WITH WHITE CONES.
RUNWAY 5  RUNWAY 23
Traffic pattern: leftleft
Obstructions: none40 ft. pline, marked, 30 ft. from runway

Airport Ownership and Management from official FAA records

Ownership: Privately-owned
Owner: GERALD WEAVER
8570 OSBORNE TURNPIKE
RICHMOND, VA 23231
Phone 804-795-1725
Manager: G P WEAVER
8570 OSBORNE TURNPIKE
RICHMOND, VA 23231
Phone 804-795-1725

Airport Operational Statistics

Aircraft based on the field: 5
Single engine airplanes: 4
Ultralights: 1
    

Instrument Procedures

There are no published instrument procedures at 4VA3.

Some nearby airports with instrument procedures:

KRIC - Richmond International Airport (6 nm NE)
KFCI - Richmond Executive Airport-Chesterfield County (6 nm W)
W96 - New Kent County Airport (13 nm E)
KPTB - Dinwiddie County Airport (16 nm S)
KOFP - Hanover County Municipal Airport (17 nm N)
 
Loc | Ops | Rwys | IFR | FBO | Links
Com | Nav | Svcs | Stats | Notes

AirNav Hotels Sweepstakes
 
Area around 4VA3 (Flying W Airport)
 
Road maps at: MapQuest Bing Google
 
Aerial photo
No photo
 
Sectional chart

 
Airport distance calculator
Flying to Flying W Airport? Find the distance to fly.

From to 4VA3

Sunrise and sunset
Times for 22-Jun-2018
 Local
(UTC-4)
 Zulu
(UTC)
Morning civil twilight05:1909:19
Sunrise05:5009:50
Sunset20:3300:33
Evening civil twilight21:0401:04

Current date and time
Zulu (UTC)  22-Jun-2018 09:28:15
Local (UTC-4)  22-Jun-2018 05:28:15
 
METAR
KFCI 
6nm W 
220856Z AUTO 13005KT 10SM OVC010 23/23 A2978 RMK AO2 TSE10B12E21RAE52 CIG 008V014 SLP095 P0001 60016 T02330228 55004 $
KRIC 
6nm NE 
220923Z 14007G18KT 100V170 3/4SM R34/P6000FT +TSRA BR FEW006 OVC010 24/23 A2977 RMK AO2 P0170 T02390228
KW96 
13nm E 
220915Z AUTO 08006KT 4SM BR OVC003 23/23 A2976 RMK AO1 P0012 T02310231
KOFP 
16nm N 
220854Z AUTO 10006KT 7SM -RA OVC004 23/23 A2978 RMK AO2 RAE24B37 SLP082 P0001 60026 T02280228 55001
KPTB 
17nm S 
220915Z AUTO 00000KT 10SM OVC006 23/22 A2977 RMK AO2 T02290218
TAF
KRIC 
6nm NE 
220746Z 2208/2306 08008KT 5SM SHRA BR BKN005 OVC015 TEMPO 2208/2209 VRB25KT 2SM TSRA BR BKN005CB FM220900 09007KT 4SM -SHRA BR OVC008 FM221700 09006KT P6SM VCSH OVC010 FM222000 07008KT P6SM OVC015 FM230000 08006KT 6SM -SHRA OVC025
NOTAMs
Click for the latest NOTAMs
NOTAMs are issued by the DoD/FAA and will open in a separate window not controlled by AirNav.

 

 
 

Would you like to see your business listed on this page?

 If your business provides an interesting product or service to pilots, flight crews, aircraft, or users of the Flying W Airport, you should consider listing it here.  To start the listing process, click on the button below
 
Add a business
 

Other Pages about Flying W Airport

Update a link
 
Copyright © AirNav, LLC. All rights reserved. Privacy Policy  Contact